| time (UTC) | temp F | wind direction | speed MPH | gust MPH | rain 1hr in | rain 24hr in | rain mn in | humidity % | barometer mb |
| 20260506182459 | 68 | 151 | 7.0 | 23.0 | 0.00 | 0.01 | 0.00 | 75 | 1005.4 |
| 20260506181959 | 68 | 161 | 9.0 | 12.0 | 0.00 | 0.01 | 0.00 | 75 | 1005.4 |
| 20260506181459 | 68 | 211 | 6.0 | 14.0 | 0.00 | 0.01 | 0.00 | 75 | 1005.6 |
| 20260506180959 | 68 | 188 | 6.0 | 18.0 | 0.00 | 0.01 | 0.00 | 75 | 1005.6 |
| 20260506180459 | 68 | 167 | 3.0 | 14.0 | 0.00 | 0.01 | 0.00 | 75 | 1005.6 |
| 20260506175959 | 68 | 184 | 7.0 | 9.0 | 0.00 | 0.01 | 0.00 | 75 | 1005.7 |
| 20260506175502 | 68 | 155 | 4.0 | 11.0 | 0.00 | 0.01 | 0.00 | 75 | 1005.7 |
| 20260506175002 | 69 | 180 | 6.0 | 19.0 | 0.00 | 0.01 | 0.00 | 74 | 1005.7 |
| 20260506174459 | 69 | 197 | 5.0 | 8.0 | 0.00 | 0.01 | 0.00 | 74 | 1005.6 |
| 20260506173959 | 69 | 188 | 4.0 | 22.0 | 0.00 | 0.01 | 0.00 | 73 | 1005.6 |
| 20260506173459 | 69 | 182 | 11.0 | 18.0 | 0.00 | 0.01 | 0.00 | 75 | 1005.6 |
| 20260506172959 | 69 | 173 | 13.0 | 15.0 | 0.00 | 0.01 | 0.00 | 75 | 1005.4 |
| 20260506172459 | 69 | 170 | 4.0 | 8.0 | 0.00 | 0.01 | 0.00 | 77 | 1005.4 |
| 20260506171959 | 69 | 147 | 7.0 | 14.0 | 0.00 | 0.01 | 0.00 | 76 | 1005.4 |
| 20260506171459 | 69 | 136 | 7.0 | 10.0 | 0.00 | 0.01 | 0.00 | 78 | 1005.7 |
| 20260506170959 | 68 | 191 | 4.0 | 7.0 | 0.00 | 0.01 | 0.00 | 82 | 1005.7 |
| 20260506170459 | 68 | 169 | 2.0 | 6.0 | 0.00 | 0.01 | 0.00 | 81 | 1005.7 |
| 20260506165959 | 67 | 129 | 1.0 | 4.0 | 0.00 | 0.01 | 0.00 | 80 | 1006.2 |
| 20260506165459 | 67 | 175 | 4.0 | 6.0 | 0.00 | 0.01 | 0.00 | 80 | 1006.2 |
| 20260506164959 | 67 | 182 | 2.0 | 9.0 | 0.00 | 0.00 | 0.00 | 80 | 1006.2 |
| 20260506164459 | 67 | 137 | 1.0 | 5.0 | 0.00 | 0.00 | 0.00 | 79 | 1006.8 |
| 20260506163959 | 67 | 177 | 2.0 | 7.0 | 0.00 | 0.00 | 0.00 | 79 | 1006.8 |
| 20260506163459 | 67 | 164 | 2.0 | 5.0 | 0.00 | 0.00 | 0.00 | 78 | 1006.8 |
| 20260506162959 | 67 | 190 | 3.0 | 6.0 | 0.00 | 0.00 | 0.00 | 78 | 1007.2 |
| 20260506162459 | 67 | 167 | 1.0 | 8.0 | 0.00 | 0.00 | 0.00 | 77 | 1007.2 |
| 20260506161959 | 67 | 151 | 3.0 | 7.0 | 0.00 | 0.00 | 0.00 | 77 | 1007.2 |
| 20260506161459 | 68 | 192 | 1.0 | 7.0 | 0.00 | 0.00 | 0.00 | 75 | 1007.3 |
| 20260506160959 | 68 | 145 | 2.0 | 4.0 | 0.00 | 0.00 | 0.00 | 75 | 1007.3 |
| 20260506160459 | 68 | 163 | 4.0 | 5.0 | 0.00 | 0.00 | 0.00 | 75 | 1007.3 |
| 20260506155959 | 68 | 153 | 1.0 | 7.0 | 0.00 | 0.00 | 0.00 | 73 | 1007.2 |
| 20260506155501 | 69 | 183 | 1.0 | 7.0 | 0.00 | 0.00 | 0.00 | 72 | 1007.2 |
| 20260506154959 | 69 | 206 | 3.0 | 12.0 | 0.00 | 0.00 | 0.00 | 70 | 1007.2 |
| 20260506154459 | 70 | 158 | 3.0 | 11.0 | 0.00 | 0.00 | 0.00 | 68 | 1007.1 |
| 20260506153959 | 70 | 159 | 4.0 | 17.0 | 0.00 | 0.00 | 0.00 | 64 | 1007.1 |
| 20260506153503 | 71 | 167 | 4.0 | 22.0 | 0.00 | 0.00 | 0.00 | 64 | 1007.1 |
| 20260506152958 | 71 | 161 | 7.0 | 22.0 | 0.00 | 0.00 | 0.00 | 62 | 1007.1 |
| 20260506152459 | 71 | 176 | 8.0 | 14.0 | 0.00 | 0.00 | 0.00 | 62 | 1007.1 |
| 20260506151959 | 71 | 186 | 7.0 | 14.0 | 0.00 | 0.00 | 0.00 | 64 | 1007.1 |
| 20260506151458 | 71 | 161 | 11.0 | 18.0 | 0.00 | 0.00 | 0.00 | 63 | 1007.2 |
| 20260506150959 | 71 | 186 | 7.0 | 19.0 | 0.00 | 0.00 | 0.00 | 63 | 1007.2 |
| 20260506150459 | 71 | 171 | 6.0 | 7.0 | 0.00 | 0.00 | 0.00 | 63 | 1007.2 |
| 20260506145958 | 71 | 168 | 9.0 | 12.0 | 0.00 | 0.00 | 0.00 | 63 | 1007.2 |
| 20260506145459 | 71 | 124 | 3.0 | 11.0 | 0.00 | 0.00 | 0.00 | 63 | 1007.2 |
| 20260506144958 | 71 | 184 | 8.0 | 12.0 | 0.00 | 0.00 | 0.00 | 62 | 1007.2 |
| 20260506144458 | 71 | 157 | 6.0 | 16.0 | 0.00 | 0.00 | 0.00 | 62 | 1007.2 |
| 20260506143958 | 71 | 226 | 7.0 | 16.0 | 0.00 | 0.00 | 0.00 | 62 | 1007.2 |
| 20260506143458 | 71 | 172 | 4.0 | 12.0 | 0.00 | 0.00 | 0.00 | 62 | 1007.2 |
| 20260506142959 | 71 | 211 | 5.0 | 12.0 | 0.00 | 0.00 | 0.00 | 62 | 1007.2 |
| 20260506142501 | 71 | 254 | 9.0 | 11.0 | 0.00 | 0.00 | 0.00 | 62 | 1007.2 |
| 20260506141958 | 71 | 245 | 10.0 | 11.0 | 0.00 | 0.00 | 0.00 | 63 | 1007.2 |
| 20260506141458 | 71 | 166 | 7.0 | 17.0 | 0.00 | 0.00 | 0.00 | 63 | 1007.2 |
| 20260506141001 | 71 | 170 | 10.0 | 10.0 | 0.00 | 0.00 | 0.00 | 64 | 1007.2 |
| 20260506140458 | 71 | 185 | 3.0 | 17.0 | 0.00 | 0.00 | 0.00 | 63 | 1007.2 |
| 20260506135958 | 71 | 176 | 9.0 | 15.0 | 0.00 | 0.00 | 0.00 | 63 | 1007.1 |
| 20260506135458 | 71 | 211 | 7.0 | 16.0 | 0.00 | 0.00 | 0.00 | 63 | 1007.1 |
| 20260506134958 | 71 | 184 | 10.0 | 20.0 | 0.00 | 0.00 | 0.00 | 63 | 1007.1 |
| 20260506134458 | 71 | 166 | 12.0 | 16.0 | 0.00 | 0.00 | 0.00 | 64 | 1007.2 |
| 20260506133958 | 71 | 184 | 9.0 | 12.0 | 0.00 | 0.00 | 0.00 | 64 | 1007.2 |
| 20260506133501 | 71 | 178 | 7.0 | 18.0 | 0.00 | 0.00 | 0.00 | 63 | 1007.2 |
| 20260506132958 | 71 | 149 | 4.0 | 18.0 | 0.00 | 0.00 | 0.00 | 63 | 1007.3 |
| 20260506132458 | 71 | 205 | 2.0 | 13.0 | 0.00 | 0.00 | 0.00 | 63 | 1007.3 |
| 20260506131958 | 71 | 184 | 8.0 | 13.0 | 0.00 | 0.00 | 0.00 | 63 | 1007.3 |
| 20260506131458 | 71 | 136 | 3.0 | 12.0 | 0.00 | 0.00 | 0.00 | 64 | 1007.3 |
| 20260506130958 | 71 | 161 | 9.0 | 17.0 | 0.00 | 0.00 | 0.00 | 65 | 1007.3 |
| 20260506130458 | 70 | 189 | 5.0 | 14.0 | 0.00 | 0.00 | 0.00 | 66 | 1007.3 |
| 20260506125958 | 70 | 180 | 7.0 | 21.0 | 0.00 | 0.00 | 0.00 | 67 | 1007.2 |
| 20260506125458 | 70 | 156 | 6.0 | 21.0 | 0.00 | 0.00 | 0.00 | 66 | 1007.2 |
| 20260506125001 | 70 | 181 | 14.0 | 14.0 | 0.00 | 0.00 | 0.00 | 68 | 1007.2 |
| 20260506124458 | 69 | 138 | 2.0 | 8.0 | 0.00 | 0.00 | 0.00 | 69 | 1007.1 |
| 20260506123958 | 69 | 139 | 5.0 | 10.0 | 0.00 | 0.00 | 0.00 | 69 | 1007.1 |
| 20260506123458 | 68 | 184 | 3.0 | 13.0 | 0.00 | 0.00 | 0.00 | 69 | 1007.1 |
| 20260506122958 | 68 | 144 | 6.0 | 6.0 | 0.00 | 0.00 | 0.00 | 71 | 1007.4 |
| 20260506122458 | 67 | 163 | 3.0 | 18.0 | 0.00 | 0.00 | 0.00 | 70 | 1007.4 |
| 20260506121958 | 67 | 209 | 4.0 | 9.0 | 0.00 | 0.00 | 0.00 | 70 | 1007.4 |
| 20260506121458 | 67 | 164 | 3.0 | 9.0 | 0.00 | 0.00 | 0.00 | 71 | 1007.4 |
| 20260506120958 | 67 | 159 | 4.0 | 8.0 | 0.00 | 0.00 | 0.00 | 71 | 1007.4 |
| 20260506120458 | 67 | 165 | 4.0 | 10.0 | 0.00 | 0.00 | 0.00 | 71 | 1007.4 |
| 20260506115958 | 67 | 180 | 2.0 | 12.0 | 0.00 | 0.00 | 0.00 | 71 | 1007.6 |
| 20260506115458 | 67 | 169 | 3.0 | 8.0 | 0.00 | 0.00 | 0.00 | 71 | 1007.6 |
| 20260506114958 | 67 | 176 | 4.0 | 11.0 | 0.00 | 0.00 | 0.00 | 72 | 1007.6 |
| 20260506114458 | 67 | 194 | 5.0 | 9.0 | 0.00 | 0.00 | 0.00 | 72 | 1007.6 |
| 20260506113958 | 66 | 186 | 3.0 | 9.0 | 0.00 | 0.00 | 0.00 | 72 | 1007.6 |
| 20260506113502 | 66 | 181 | 4.0 | 15.0 | 0.00 | 0.00 | 0.00 | 72 | 1007.6 |
| 20260506112958 | 66 | 152 | 5.0 | 12.0 | 0.00 | 0.00 | 0.00 | 73 | 1007.6 |
| 20260506112458 | 66 | 138 | 1.0 | 11.0 | 0.00 | 0.00 | 0.00 | 73 | 1007.6 |
| 20260506111958 | 66 | 155 | 5.0 | 10.0 | 0.00 | 0.00 | 0.00 | 75 | 1007.6 |
| 20260506111501 | 65 | 185 | 6.0 | 12.0 | 0.00 | 0.00 | 0.00 | 75 | 1007.6 |
| 20260506110958 | 65 | 163 | 2.0 | 10.0 | 0.00 | 0.00 | 0.00 | 75 | 1007.6 |
| 20260506110458 | 65 | 182 | 4.0 | 9.0 | 0.00 | 0.00 | 0.00 | 76 | 1007.6 |
| 20260506110001 | 65 | 179 | 6.0 | 11.0 | 0.00 | 0.00 | 0.00 | 76 | 1007.3 |
| 20260506105458 | 65 | 175 | 3.0 | 11.0 | 0.00 | 0.00 | 0.00 | 76 | 1007.3 |
| 20260506105001 | 65 | 121 | 2.0 | 7.0 | 0.00 | 0.00 | 0.00 | 77 | 1007.3 |
| 20260506104458 | 65 | 214 | 4.0 | 5.0 | 0.00 | 0.00 | 0.00 | 77 | 1007.3 |
| 20260506103958 | 64 | 134 | 5.0 | 5.0 | 0.00 | 0.00 | 0.00 | 77 | 1007.3 |
| 20260506103458 | 64 | 182 | 4.0 | 8.0 | 0.00 | 0.00 | 0.00 | 77 | 1007.3 |
| 20260506103001 | 64 | 161 | 3.0 | 5.0 | 0.00 | 0.00 | 0.00 | 77 | 1007.4 |
| 20260506102458 | 64 | 138 | 4.0 | 10.0 | 0.00 | 0.00 | 0.00 | 77 | 1007.4 |
| 20260506102001 | 64 | 180 | 3.0 | 9.0 | 0.00 | 0.00 | 0.00 | 77 | 1007.4 |
| 20260506101458 | 64 | 168 | 1.0 | 7.0 | 0.00 | 0.00 | 0.00 | 77 | 1007.4 |
| 20260506101001 | 64 | 236 | 5.0 | 11.0 | 0.00 | 0.00 | 0.00 | 77 | 1007.4 |
| 20260506100458 | 64 | 173 | 7.0 | 9.0 | 0.00 | 0.00 | 0.00 | 77 | 1007.4 |
| 20260506095958 | 65 | 160 | 2.0 | 5.0 | 0.00 | 0.00 | 0.00 | 77 | 1007.2 |
| 20260506095458 | 65 | 142 | 3.0 | 7.0 | 0.00 | 0.00 | 0.00 | 77 | 1007.2 |
| 20260506095001 | 65 | 131 | 4.0 | 6.0 | 0.00 | 0.00 | 0.00 | 77 | 1007.2 |
| 20260506094458 | 65 | 142 | 5.0 | 10.0 | 0.00 | 0.00 | 0.00 | 77 | 1007.2 |
| 20260506093958 | 65 | 172 | 4.0 | 17.0 | 0.00 | 0.00 | 0.00 | 77 | 1007.2 |
| 20260506093458 | 65 | 144 | 4.0 | 17.0 | 0.00 | 0.00 | 0.00 | 77 | 1007.2 |
| 20260506092958 | 65 | 143 | 5.0 | 8.0 | 0.00 | 0.00 | 0.00 | 77 | 1007.2 |
| 20260506092458 | 65 | 142 | 5.0 | 8.0 | 0.00 | 0.00 | 0.00 | 77 | 1007.2 |
| 20260506091958 | 65 | 157 | 1.0 | 6.0 | 0.00 | 0.00 | 0.00 | 76 | 1007.3 |
| 20260506091458 | 65 | 122 | 3.0 | 8.0 | 0.00 | 0.00 | 0.00 | 77 | 1007.3 |
| 20260506090958 | 65 | 173 | 4.0 | 10.0 | 0.00 | 0.00 | 0.00 | 76 | 1007.3 |
| 20260506090501 | 65 | 171 | 4.0 | 5.0 | 0.00 | 0.00 | 0.00 | 76 | 1007.3 |
| 20260506085958 | 65 | 159 | 3.0 | 6.0 | 0.00 | 0.00 | 0.00 | 76 | 1007.6 |
| 20260506085501 | 65 | 142 | 3.0 | 10.0 | 0.00 | 0.00 | 0.00 | 76 | 1007.6 |
| 20260506084958 | 65 | 158 | 4.0 | 6.0 | 0.00 | 0.00 | 0.00 | 76 | 1007.6 |
| 20260506084501 | 66 | 180 | 2.0 | 8.0 | 0.00 | 0.00 | 0.00 | 76 | 1007.5 |
| 20260506084001 | 66 | 165 | 2.0 | 9.0 | 0.00 | 0.00 | 0.00 | 76 | 1007.5 |
| 20260506083458 | 66 | 131 | 3.0 | 15.0 | 0.00 | 0.00 | 0.00 | 76 | 1007.5 |
| 20260506082958 | 66 | 167 | 3.0 | 6.0 | 0.00 | 0.00 | 0.00 | 76 | 1007.6 |
| 20260506082458 | 66 | 159 | 4.0 | 7.0 | 0.00 | 0.00 | 0.00 | 75 | 1007.6 |
| 20260506081958 | 66 | 160 | 3.0 | 8.0 | 0.00 | 0.00 | 0.00 | 75 | 1007.6 |
| 20260506081458 | 66 | 161 | 5.0 | 7.0 | 0.00 | 0.00 | 0.00 | 75 | 1007.5 |
| 20260506081001 | 66 | 137 | 2.0 | 7.0 | 0.00 | 0.00 | 0.00 | 75 | 1007.5 |
| 20260506080458 | 66 | 127 | 3.0 | 9.0 | 0.00 | 0.00 | 0.00 | 75 | 1007.5 |
| 20260506073458 | 67 | 158 | 3.0 | 10.0 | 0.00 | 0.00 | 0.00 | 74 | 1007.6 |
| 20260506072958 | 67 | 177 | 2.0 | 13.0 | 0.00 | 0.00 | 0.00 | 74 | 1007.7 |
| 20260506072458 | 67 | 150 | 5.0 | 6.0 | 0.00 | 0.00 | 0.00 | 73 | 1007.7 |
| 20260506071958 | 67 | 172 | 4.0 | 13.0 | 0.00 | 0.00 | 0.00 | 73 | 1007.7 |
| 20260506071457 | 67 | 159 | 2.0 | 9.0 | 0.00 | 0.00 | 0.00 | 73 | 1007.8 |
| 20260506070958 | 67 | 153 | 3.0 | 9.0 | 0.00 | 0.00 | 0.00 | 73 | 1007.8 |
| 20260506070458 | 67 | 184 | 4.0 | 9.0 | 0.00 | 0.00 | 0.00 | 73 | 1007.8 |
| 20260506062457 | 68 | 166 | 2.0 | 7.0 | 0.00 | 0.00 | 0.00 | 71 | 1007.8 |
| 20260506061957 | 68 | 144 | 3.0 | 8.0 | 0.00 | 0.00 | 0.00 | 71 | 1007.8 |
| 20260506061457 | 68 | 146 | 3.0 | 10.0 | 0.00 | 0.00 | 0.00 | 71 | 1007.7 |
| 20260506060957 | 68 | 144 | 4.0 | 11.0 | 0.00 | 0.00 | 0.00 | 71 | 1007.7 |
| 20260506060457 | 68 | 199 | 5.0 | 7.0 | 0.00 | 0.00 | 0.00 | 70 | 1007.7 |
| 20260506050957 | 69 | 148 | 1.0 | 3.0 | 0.00 | 0.00 | 0.00 | 68 | 1008.5 |
| 20260506050457 | 69 | 187 | 1.0 | 6.0 | 0.00 | 0.00 | 0.00 | 67 | 1008.5 |
| 20260506044957 | 69 | 180 | 4.0 | 7.0 | 0.00 | 0.00 | 0.00 | 66 | 1008.5 |
| 20260506044457 | 69 | 181 | 1.0 | 8.0 | 0.00 | 0.00 | 0.00 | 66 | 1008.5 |
| 20260506043957 | 69 | 151 | 1.0 | 8.0 | 0.00 | 0.00 | 0.00 | 66 | 1008.5 |
| 20260506043457 | 69 | 140 | 4.0 | 7.0 | 0.00 | 0.00 | 0.00 | 65 | 1008.5 |
| 20260506042957 | 69 | 164 | 2.0 | 9.0 | 0.00 | 0.00 | 0.00 | 65 | 1008.3 |
| 20260506042457 | 70 | 196 | 5.0 | 7.0 | 0.00 | 0.00 | 0.00 | 65 | 1008.3 |
| 20260506041957 | 70 | 205 | 3.0 | 6.0 | 0.00 | 0.00 | 0.00 | 64 | 1008.3 |
| 20260506041457 | 70 | 172 | 2.0 | 10.0 | 0.00 | 0.00 | 0.00 | 64 | 1008.3 |
| 20260506040957 | 70 | 180 | 4.0 | 12.0 | 0.00 | 0.00 | 0.00 | 64 | 1008.3 |
| 20260506040457 | 70 | 209 | 8.0 | 11.0 | 0.00 | 0.00 | 0.00 | 64 | 1008.3 |
| 20260506035957 | 70 | 196 | 8.0 | 11.0 | 0.00 | 0.00 | 0.00 | 64 | 1008.3 |
| 20260506035457 | 70 | 201 | 3.0 | 5.0 | 0.00 | 0.00 | 0.00 | 63 | 1008.3 |
| 20260506034957 | 70 | 159 | 2.0 | 4.0 | 0.00 | 0.00 | 0.00 | 63 | 1008.3 |
| 20260506034457 | 70 | 188 | 3.0 | 7.0 | 0.00 | 0.00 | 0.00 | 62 | 1008.3 |
| 20260506033957 | 70 | 189 | 6.0 | 8.0 | 0.00 | 0.00 | 0.00 | 62 | 1008.3 |
| 20260506033457 | 70 | 176 | 2.0 | 13.0 | 0.00 | 0.00 | 0.00 | 62 | 1008.3 |
| 20260506032957 | 70 | 145 | 4.0 | 7.0 | 0.00 | 0.00 | 0.00 | 62 | 1008.3 |
| 20260506032457 | 70 | 157 | 3.0 | 12.0 | 0.00 | 0.00 | 0.00 | 61 | 1008.3 |
| 20260506031957 | 71 | 171 | 10.0 | 12.0 | 0.00 | 0.00 | 0.00 | 61 | 1008.3 |
| 20260506031457 | 71 | 158 | 9.0 | 10.0 | 0.00 | 0.00 | 0.00 | 61 | 1008.3 |
| 20260506031000 | 71 | 132 | 5.0 | 6.0 | 0.00 | 0.00 | 0.00 | 60 | 1008.3 |
| 20260506030457 | 71 | 194 | 5.0 | 11.0 | 0.00 | 0.00 | 0.00 | 60 | 1008.3 |
| 20260506025957 | 71 | 144 | 3.0 | 13.0 | 0.00 | 0.00 | 0.00 | 60 | 1008.3 |
| 20260506025457 | 71 | 169 | 4.0 | 9.0 | 0.00 | 0.00 | 0.00 | 59 | 1008.3 |
| 20260506024957 | 71 | 171 | 4.0 | 6.0 | 0.00 | 0.00 | 0.00 | 59 | 1008.3 |
| 20260506024457 | 71 | 183 | 3.0 | 8.0 | 0.00 | 0.00 | 0.00 | 58 | 1008.3 |
| 20260506023957 | 71 | 162 | 6.0 | 7.0 | 0.00 | 0.00 | 0.00 | 58 | 1008.3 |
| 20260506023457 | 71 | 157 | 3.0 | 11.0 | 0.00 | 0.00 | 0.00 | 58 | 1008.3 |
| 20260506022957 | 71 | 165 | 4.0 | 11.0 | 0.00 | 0.00 | 0.00 | 57 | 1008.3 |
| 20260506022500 | 72 | 199 | 2.0 | 7.0 | 0.00 | 0.00 | 0.00 | 57 | 1008.3 |
| 20260506022000 | 72 | 156 | 2.0 | 8.0 | 0.00 | 0.00 | 0.00 | 57 | 1008.3 |
| 20260506021500 | 72 | 169 | 1.0 | 14.0 | 0.00 | 0.00 | 0.00 | 56 | 1008.3 |
| 20260506020957 | 72 | 182 | 4.0 | 8.0 | 0.00 | 0.00 | 0.00 | 56 | 1008.3 |
| 20260506020457 | 72 | 208 | 5.0 | 10.0 | 0.00 | 0.00 | 0.00 | 56 | 1008.3 |
| 20260506015957 | 72 | 157 | 4.0 | 6.0 | 0.00 | 0.00 | 0.00 | 56 | 1008.2 |
| 20260506015457 | 72 | 163 | 2.0 | 14.0 | 0.00 | 0.00 | 0.00 | 56 | 1008.2 |
| 20260506014957 | 72 | 159 | 1.0 | 7.0 | 0.00 | 0.00 | 0.00 | 56 | 1008.2 |
| 20260506014500 | 73 | 157 | 0.0 | 9.0 | 0.00 | 0.00 | 0.00 | 56 | 1008.1 |
| 20260506013957 | 73 | 165 | 2.0 | 8.0 | 0.00 | 0.00 | 0.00 | 55 | 1008.1 |
| 20260506013500 | 73 | 153 | 4.0 | 6.0 | 0.00 | 0.00 | 0.00 | 55 | 1008.1 |
| 20260506012957 | 73 | 167 | 6.0 | 10.0 | 0.00 | 0.00 | 0.00 | 55 | 1007.8 |
| 20260506012500 | 73 | 148 | 2.0 | 7.0 | 0.00 | 0.00 | 0.00 | 54 | 1007.8 |
| 20260506012000 | 74 | 146 | 2.0 | 5.0 | 0.00 | 0.00 | 0.00 | 54 | 1007.8 |
| 20260506011457 | 74 | 141 | 3.0 | 9.0 | 0.00 | 0.00 | 0.00 | 53 | 1007.8 |
| 20260506010957 | 74 | 129 | 3.0 | 11.0 | 0.00 | 0.00 | 0.00 | 53 | 1007.8 |
| 20260506010457 | 74 | 155 | 4.0 | 13.0 | 0.00 | 0.00 | 0.00 | 52 | 1007.8 |
| 20260506005957 | 75 | 202 | 6.0 | 11.0 | 0.00 | 0.00 | 0.00 | 51 | 1007.7 |
| 20260506005457 | 75 | 162 | 2.0 | 7.0 | 0.00 | 0.00 | 0.00 | 50 | 1007.7 |
| 20260506004957 | 75 | 174 | 4.0 | 8.0 | 0.00 | 0.00 | 0.00 | 50 | 1007.7 |
| 20260506004500 | 75 | 126 | 2.0 | 10.0 | 0.00 | 0.00 | 0.00 | 49 | 1007.6 |
| 20260506003957 | 76 | 200 | 3.0 | 12.0 | 0.00 | 0.00 | 0.00 | 48 | 1007.6 |
| 20260506003457 | 76 | 182 | 6.0 | 12.0 | 0.00 | 0.00 | 0.00 | 48 | 1007.6 |
| 20260506002957 | 76 | 150 | 3.0 | 9.0 | 0.00 | 0.00 | 0.00 | 46 | 1007.3 |
| 20260506002457 | 77 | 187 | 3.0 | 9.0 | 0.00 | 0.00 | 0.00 | 45 | 1007.3 |
| 20260506001957 | 77 | 171 | 4.0 | 11.0 | 0.00 | 0.00 | 0.00 | 44 | 1007.3 |
| 20260506001457 | 77 | 157 | 2.0 | 10.0 | 0.00 | 0.00 | 0.00 | 43 | 1007.1 |
| 20260506000957 | 78 | 204 | 6.0 | 15.0 | 0.00 | 0.00 | 0.00 | 42 | 1007.1 |
| 20260506000457 | 78 | 146 | 3.0 | 12.0 | 0.00 | 0.00 | 0.00 | 41 | 1007.1 |
| 20260505235957 | 78 | 167 | 3.0 | 6.0 | 0.00 | 0.00 | 0.00 | 41 | 1006.9 |
| 20260505235457 | 79 | 147 | 2.0 | 10.0 | 0.00 | 0.00 | 0.00 | 39 | 1006.9 |
| 20260505235000 | 79 | 188 | 5.0 | 10.0 | 0.00 | 0.00 | 0.00 | 40 | 1006.9 |
| 20260505234457 | 79 | 167 | 3.0 | 9.0 | 0.00 | 0.00 | 0.00 | 39 | 1006.7 |
| 20260505234000 | 79 | 162 | 5.0 | 14.0 | 0.00 | 0.00 | 0.00 | 39 | 1006.7 |
| 20260505233457 | 80 | 177 | 4.0 | 16.0 | 0.00 | 0.00 | 0.00 | 38 | 1006.7 |
| 20260505233000 | 80 | 171 | 9.0 | 15.0 | 0.00 | 0.00 | 0.00 | 38 | 1006.7 |
| 20260505232457 | 80 | 188 | 6.0 | 18.0 | 0.00 | 0.00 | 0.00 | 38 | 1006.7 |
| 20260505231957 | 80 | 168 | 2.0 | 12.0 | 0.00 | 0.00 | 0.00 | 38 | 1006.7 |
| 20260505231457 | 81 | 145 | 5.0 | 14.0 | 0.00 | 0.00 | 0.00 | 37 | 1006.5 |
| 20260505230957 | 81 | 186 | 7.0 | 18.0 | 0.00 | 0.00 | 0.00 | 37 | 1006.5 |
| 20260505230459 | 81 | 176 | 6.0 | 12.0 | 0.00 | 0.00 | 0.00 | 37 | 1006.5 |
| 20260505225957 | 81 | 153 | 4.0 | 16.0 | 0.00 | 0.00 | 0.00 | 36 | 1006.2 |
| 20260505225457 | 82 | 175 | 6.0 | 18.0 | 0.00 | 0.00 | 0.00 | 36 | 1006.2 |
| 20260505224957 | 82 | 180 | 7.0 | 19.0 | 0.00 | 0.00 | 0.00 | 35 | 1006.2 |
| 20260505224457 | 82 | 196 | 5.0 | 18.0 | 0.00 | 0.00 | 0.00 | 34 | 1006.1 |
| 20260505223957 | 82 | 203 | 7.0 | 21.0 | 0.00 | 0.00 | 0.00 | 34 | 1006.1 |
| 20260505223457 | 82 | 205 | 7.0 | 24.0 | 0.00 | 0.00 | 0.00 | 34 | 1006.1 |
| 20260505222956 | 83 | 180 | 6.0 | 14.0 | 0.00 | 0.00 | 0.00 | 33 | 1006.3 |
| 20260505222456 | 83 | 225 | 2.0 | 12.0 | 0.00 | 0.00 | 0.00 | 31 | 1006.3 |
| 20260505221956 | 83 | 186 | 7.0 | 18.0 | 0.00 | 0.00 | 0.00 | 30 | 1006.3 |
| 20260505221457 | 83 | 260 | 2.0 | 11.0 | 0.00 | 0.00 | 0.00 | 30 | 1006.0 |
| 20260505220957 | 83 | 200 | 11.0 | 18.0 | 0.00 | 0.00 | 0.00 | 29 | 1006.0 |
| 20260505220456 | 83 | 186 | 4.0 | 19.0 | 0.00 | 0.00 | 0.00 | 30 | 1006.0 |
| 20260505215956 | 83 | 186 | 15.0 | 22.0 | 0.00 | 0.00 | 0.00 | 29 | 1005.7 |
| 20260505215457 | 83 | 192 | 15.0 | 18.0 | 0.00 | 0.00 | 0.00 | 29 | 1005.7 |
| 20260505214956 | 83 | 243 | 5.0 | 12.0 | 0.00 | 0.00 | 0.00 | 29 | 1005.7 |
| 20260505214456 | 84 | 188 | 6.0 | 12.0 | 0.00 | 0.00 | 0.00 | 28 | 1005.7 |
| 20260505213956 | 84 | 193 | 5.0 | 19.0 | 0.00 | 0.00 | 0.00 | 27 | 1005.7 |
| 20260505213456 | 84 | 202 | 18.0 | 22.0 | 0.00 | 0.00 | 0.00 | 27 | 1005.7 |
| 20260505212956 | 84 | 199 | 16.0 | 24.0 | 0.00 | 0.00 | 0.00 | 27 | 1005.7 |
| 20260505212456 | 84 | 128 | 6.0 | 18.0 | 0.00 | 0.00 | 0.00 | 27 | 1005.7 |
| 20260505211956 | 84 | 171 | 8.0 | 16.0 | 0.00 | 0.00 | 0.00 | 27 | 1005.7 |
| 20260505211456 | 84 | 203 | 14.0 | 15.0 | 0.00 | 0.00 | 0.00 | 28 | 1005.7 |
| 20260505210959 | 84 | 124 | 6.0 | 21.0 | 0.00 | 0.00 | 0.00 | 28 | 1005.7 |
| 20260505210456 | 84 | 194 | 8.0 | 20.0 | 0.00 | 0.00 | 0.00 | 29 | 1005.7 |
| 20260505205956 | 84 | 188 | 14.0 | 20.0 | 0.00 | 0.00 | 0.00 | 30 | 1005.5 |
| 20260505205456 | 84 | 180 | 9.0 | 17.0 | 0.00 | 0.00 | 0.00 | 34 | 1005.5 |
| 20260505204956 | 84 | 196 | 7.0 | 17.0 | 0.00 | 0.00 | 0.00 | 32 | 1005.5 |
| 20260505204456 | 85 | 150 | 4.0 | 15.0 | 0.00 | 0.00 | 0.00 | 35 | 1005.5 |
| 20260505203956 | 85 | 169 | 7.0 | 17.0 | 0.00 | 0.00 | 0.00 | 34 | 1005.5 |
| 20260505203456 | 85 | 163 | 11.0 | 22.0 | 0.00 | 0.00 | 0.00 | 33 | 1005.5 |
| 20260505202956 | 84 | 167 | 7.0 | 12.0 | 0.00 | 0.00 | 0.00 | 31 | 1005.5 |
| 20260505202456 | 84 | 179 | 3.0 | 20.0 | 0.00 | 0.00 | 0.00 | 32 | 1005.5 |
| 20260505201958 | 84 | 185 | 8.0 | 18.0 | 0.00 | 0.00 | 0.00 | 33 | 1005.5 |
| 20260505201456 | 84 | 134 | 12.0 | 25.0 | 0.00 | 0.00 | 0.00 | 31 | 1005.7 |
| 20260505200956 | 85 | 175 | 11.0 | 17.0 | 0.00 | 0.00 | 0.00 | 34 | 1005.7 |
| 20260505200459 | 85 | 192 | 6.0 | 18.0 | 0.00 | 0.00 | 0.00 | 34 | 1005.7 |
| 20260505195956 | 85 | 173 | 6.0 | 14.0 | 0.00 | 0.00 | 0.00 | 34 | 1005.7 |
| 20260505195456 | 85 | 194 | 6.0 | 16.0 | 0.00 | 0.00 | 0.00 | 34 | 1005.7 |
| 20260505194956 | 85 | 132 | 7.0 | 15.0 | 0.00 | 0.00 | 0.00 | 33 | 1005.7 |
| 20260505194456 | 85 | 172 | 1.0 | 17.0 | 0.00 | 0.00 | 0.00 | 34 | 1006.1 |
| 20260505193956 | 85 | 182 | 8.0 | 11.0 | 0.00 | 0.00 | 0.00 | 33 | 1006.1 |
| 20260505193459 | 85 | 192 | 8.0 | 14.0 | 0.00 | 0.00 | 0.00 | 33 | 1006.1 |
| 20260505192959 | 85 | 181 | 8.0 | 17.0 | 0.00 | 0.00 | 0.00 | 33 | 1005.9 |
| 20260505192456 | 85 | 184 | 15.0 | 18.0 | 0.00 | 0.00 | 0.00 | 33 | 1005.9 |
| 20260505191956 | 85 | 175 | 11.0 | 18.0 | 0.00 | 0.00 | 0.00 | 33 | 1005.9 |
| 20260505191456 | 85 | 151 | 4.0 | 16.0 | 0.00 | 0.00 | 0.00 | 33 | 1006.2 |
| 20260505190956 | 85 | 179 | 9.0 | 17.0 | 0.00 | 0.00 | 0.00 | 33 | 1006.2 |
| 20260505190456 | 85 | 219 | 6.0 | 16.0 | 0.00 | 0.00 | 0.00 | 33 | 1006.2 |
| 20260505185956 | 85 | 166 | 16.0 | 16.0 | 0.00 | 0.00 | 0.00 | 34 | 1006.7 |
| 20260505185456 | 85 | 203 | 7.0 | 18.0 | 0.00 | 0.00 | 0.00 | 35 | 1006.7 |
| 20260505184959 | 85 | 204 | 4.0 | 16.0 | 0.00 | 0.00 | 0.00 | 34 | 1006.7 |
| 20260505184456 | 85 | 184 | 6.0 | 18.0 | 0.00 | 0.00 | 0.00 | 33 | 1006.7 |
| 20260505183959 | 85 | 130 | 4.0 | 18.0 | 0.00 | 0.00 | 0.00 | 34 | 1006.7 |
| 20260505183456 | 85 | 182 | 5.0 | 15.0 | 0.00 | 0.00 | 0.00 | 33 | 1006.7 |
| 20260505182956 | 85 | 188 | 10.0 | 20.0 | 0.00 | 0.00 | 0.00 | 34 | 1006.9 |